Wind_Speed
33 33 34 35 36 37 38 40 41 41 41 42 42 42 40 40 40 40 40 41 42 42 43 43 44 43 43 43 43 43 43 43 42 41 41 41 41 41 42 42 41 42 43 43
34 34 35 35 36 37 39 41 42 43 42 43 43 43 41 41 41 41 40 41 42 43 43 44 44 44 44 44 44 44 44 44 43 43 42 42 42 42 42 42 42 43 43 44
35 35 36 36 37 39 40 41 42 43 43 43 44 44 42 41 42 41 41 41 41 42 43 43 44 45 45 45 45 44 44 44 44 44 44 43 43 42 42 42 43 44 44 44
36 36 37 38 38 40 41 41 41 42 43 43 43 45 43 42 42 42 41 41 40 41 42 43 44 45 45 45 45 45 45 45 45 44 44 44 43 43 42 43 43 44 44 45
37 37 38 39 40 41 42 41 42 41 42 43 42 45 44 43 42 41 40 40 40 41 41 42 43 44 44 44 45 45 45 45 46 45 45 45 44 44 43 44 44 44 45 46
38 39 39 40 40 41 41 41 42 41 41 42 40 42 43 42 41 40 39 39 39 39 40 41 42 43 43 44 44 45 45 45 46 46 46 45 45 44 44 44 44 44 45 45
38 38 39 39 40 40 40 40 40 40 40 41 39 40 41 40 40 40 39 38 38 39 40 40 41 42 42 43 43 44 45 45 46 46 46 45 46 46 45 45 45 45 45 45
38 38 38 38 38 38 37 37 37 38 39 39 38 39 39 39 39 39 39 39 39 39 40 40 41 41 42 42 43 44 45 45 46 46 45 45 45 45 46 46 46 46 45 45
37 38 36 36 35 35 35 34 34 36 37 37 36 37 37 37 38 39 38 38 39 40 40 40 40 41 42 43 43 44 44 45 46 46 46 46 46 46 46 46 47 47 46 46
36 37 35 34 33 32 32 32 32 33 35 36 35 35 36 36 36 37 37 38 38 39 40 40 40 40 40 42 42 43 44 44 45 45 46 46 47 47 47 47 47 47 47 47
35 36 35 34 32 32 31 32 32 33 34 35 35 34 34 34 34 35 36 38 38 39 39 40 40 40 40 41 41 41 42 43 44 44 44 45 46 46 47 47 47 47 47 47
35 35 34 33 32 32 31 32 31 32 33 34 35 35 34 34 34 34 35 36 38 38 38 38 38 39 39 40 40 41 41 42 42 43 44 44 45 45 46 46 47 46 46 46
34 34 34 33 32 31 31 32 32 32 33 34 35 35 34 35 36 36 36 37 37 37 37 37 37 38 39 39 40 40 40 41 41 41 42 43 44 45 45 46 46 47 47 47
33 32 32 31 31 32 32 32 32 33 34 34 34 35 35 36 36 36 37 37 37 37 36 36 36 37 38 39 39 40 40 40 40 40 41 42 43 44 44 44 45 46 46 46
33 33 31 31 30 31 31 32 33 34 34 35 33 34 34 35 35 35 36 37 37 36 36 36 36 37 37 38 38 39 39 40 40 40 40 40 41 42 43 44 44 44 45 45
32 32 32 31 31 31 31 32 32 33 33 34 33 33 33 34 35 36 36 35 35 36 36 35 35 36 37 37 38 39 39 40 40 40 40 40 40 41 41 42 44 44 44 44
32 32 32 31 31 31 31 31 32 32 32 32 32 33 33 34 35 36 36 35 35 35 34 34 34 35 36 37 38 38 39 40 40 40 40 40 40 41 42 42 43 43 43 44
32 31 31 31 31 31 31 31 31 31 31 30 30 30 31 33 33 34 35 35 35 34 33 33 33 34 34 35 36 37 38 39 40 41 41 41 41 41 41 41 42 42 42 42
30 29 30 30 30 31 30 31 31 31 30 30 30 30 31 32 33 33 34 34 34 34 32 32 33 33 34 35 36 36 37 38 39 40 40 40 40 40 40 40 40 40 40 41
29 28 29 29 30 31 30 30 31 31 30 30 30 30 31 31 32 30 31 32 32 31 31 32 33 33 34 35 36 36 36 37 38 38 39 39 39 39 39 39 39 39 40 40
29 29 29 29 30 30 30 30 30 29 30 30 30 30 30 31 31 30 29 29 29 29 29 30 31 32 33 34 34 34 34 35 36 37 37 37 37 37 38 38 38 38 39 40
30 31 30 30 30 29 29 29 29 29 29 29 29 29 29 30 29 29 28 27 27 28 28 29 30 32 32 32 32 32 32 33 34 34 34 34 34 35 35 36 37 37 38 38
30 30 30 29 29 28 28 28 29 29 29 28 29 29 29 28 28 27 27 26 26 27 28 29 29 29 30 30 30 30 30 30 30 30 30 31 31 32 33 33 34 35 36 37
29 29 28 28 27 27 27 28 29 29 29 28 28 28 27 27 26 25 25 26 26 27 27 28 29 29 29 29 28 28 28 28 28 28 28 28 29 29 30 31 32 33 34 34
28 28 27 27 27 28 27 28 29 29 29 27 26 26 26 26 25 25 25 25 26 27 28 28 28 28 27 27 26 26 25 25 26 26 27 27 27 28 28 29 29 30 32 33
27 27 27 27 27 27 26 26 27 27 27 26 26 26 26 26 26 25 26 26 27 28 28 28 27 26 25 24 24 24 24 24 24 24 24 25 25 26 26 27 27 28 29 30
Wind_Direction
287 286 286 287 287 286 285 283 281 280 279 277 276 275 275 274 274 273 271 269 268 267 266 264 264 264 265 266 266 265 265 265 263 264 263 262 261 261 259 258 257 255 254 253
287 287 289 289 288 287 285 283 282 280 280 279 277 276 275 274 273 272 271 270 269 267 266 265 265 265 265 266 266 265 265 264 264 263 263 262 261 261 259 259 258 256 254 254
290 290 290 289 288 288 286 285 284 283 281 279 278 276 275 274 273 272 272 271 270 269 267 265 265 265 266 266 266 265 265 263 263 263 262 263 261 260 260 259 258 257 255 254
291 291 290 289 289 288 286 285 284 283 282 280 278 278 275 274 273 272 272 271 270 269 268 266 265 265 265 266 265 265 265 263 263 263 262 262 262 260 259 259 259 257 256 255
292 291 290 289 289 288 287 286 285 283 283 281 279 279 277 275 274 273 273 272 271 270 269 268 267 266 266 265 265 265 264 263 262 262 261 260 261 261 260 259 258 257 257 256
293 292 291 290 289 288 288 286 285 283 283 282 282 281 280 278 277 275 274 272 271 270 269 269 268 267 266 266 265 264 264 263 263 262 261 260 260 260 260 259 258 257 257 256
294 293 292 292 290 289 288 286 286 285 283 283 284 283 281 280 279 278 276 273 272 270 269 268 268 267 266 265 265 264 264 263 262 262 262 261 260 260 260 259 258 257 256 255
297 295 294 292 291 291 289 287 287 287 287 286 285 284 283 282 281 279 277 274 272 272 270 269 268 267 266 265 264 264 264 263 262 262 262 261 261 260 259 259 258 257 256 255
298 297 296 294 292 291 290 289 288 287 287 287 286 285 285 284 282 281 279 277 274 272 270 270 268 267 267 266 266 265 264 263 262 262 262 262 262 261 260 259 259 258 257 256
299 298 297 295 293 291 290 290 289 288 288 287 287 286 286 286 285 283 282 280 277 274 271 269 268 267 268 267 267 266 265 264 263 263 262 263 263 262 261 260 259 258 256 256
299 298 298 296 294 292 291 290 289 287 287 288 287 286 285 286 287 285 283 281 278 276 274 270 269 268 268 268 267 267 266 264 264 264 264 263 263 263 262 260 258 257 256 257
300 299 297 296 295 293 292 292 290 288 287 287 287 287 287 286 285 284 283 281 279 277 275 272 270 269 269 269 267 267 266 265 265 264 264 264 263 262 261 259 257 256 256 256
301 300 299 297 296 295 293 291 290 289 287 287 287 287 288 286 285 284 283 282 281 279 275 272 271 270 269 269 268 267 266 266 265 265 264 264 263 262 261 259 256 255 255 255
300 299 298 299 298 296 294 292 290 289 289 289 288 287 285 286 285 284 284 283 281 279 275 273 272 271 270 270 269 268 266 266 266 265 265 265 264 262 260 258 258 256 256 256
300 299 298 297 296 294 294 293 292 291 291 290 291 288 286 285 286 285 285 284 282 279 276 274 272 271 271 270 270 269 267 267 267 266 265 265 264 263 261 259 258 258 258 257
301 300 299 296 295 294 293 295 295 295 294 292 290 289 288 287 287 286 286 285 283 279 276 275 273 272 271 270 270 269 268 268 267 267 266 266 265 263 261 260 259 259 259 259
302 301 300 299 297 296 296 298 298 297 296 294 292 291 289 289 289 289 287 286 286 283 279 276 274 273 273 272 271 270 269 269 269 268 268 267 266 264 263 262 261 260 260 259
302 301 302 302 302 300 299 300 300 299 298 296 294 294 293 293 293 292 291 288 287 285 282 278 276 275 275 275 274 272 271 270 270 269 269 269 267 265 264 263 262 260 259 258
306 305 305 306 306 304 303 303 303 302 300 297 296 295 295 295 295 293 292 291 289 285 284 281 278 278 278 277 276 275 274 273 272 271 271 270 267 264 264 263 261 259 258 257
309 307 306 306 306 306 307 305 304 303 301 299 297 296 298 299 297 294 293 292 290 287 286 284 281 281 280 280 280 278 277 276 274 273 272 270 267 264 263 262 260 259 258 257
309 306 306 305 305 306 308 307 306 305 304 302 299 299 300 301 300 298 295 292 290 289 288 286 285 284 283 283 283 281 279 278 278 276 273 271 267 265 263 261 260 258 257 257
308 306 304 305 306 307 307 306 305 305 305 304 302 300 301 301 301 300 298 295 292 291 290 289 287 286 285 285 284 284 282 281 280 278 275 271 267 265 264 261 259 258 257 257
307 306 305 306 306 306 306 306 306 306 305 303 302 300 301 301 301 301 299 297 295 294 293 291 290 290 288 287 286 285 284 282 281 279 277 273 268 266 264 262 259 257 257 256
310 308 306 306 307 307 305 306 307 308 306 305 303 303 303 303 302 302 301 299 297 297 296 294 292 291 291 289 288 286 285 284 282 280 278 274 270 268 266 262 260 258 257 256
310 309 308 307 307 306 305 306 307 306 306 306 306 306 304 304 304 305 304 302 301 299 299 298 296 295 293 291 289 288 288 286 283 281 279 275 271 269 267 264 261 259 257 256
311 309 309 309 308 308 307 306 307 307 307 307 307 307 305 304 304 305 306 306 305 303 301 300 298 296 295 293 291 290 289 288 286 283 280 276 273 270 267 264 262 260 259 257
Height
5690 5689 5686 5684 5682 5679 5677 5674 5672 5671 5669 5667 5666 5666 5667 5666 5665 5665 5665 5665 5665 5665 5665 5665 5666 5666 5667 5668 5668 5669 5669 5669 5670 5671 5672 5673 5674 5674 5675 5676 5677 5679 5680 5682
5682 5680 5678 5675 5672 5669 5666 5664 5662 5660 5658 5656 5655 5655 5655 5655 5655 5655 5655 5655 5654 5654 5654 5654 5655 5655 5656 5657 5657 5658 5658 5658 5659 5660 5661 5661 5662 5663 5664 5665 5666 5668 5669 5671
5672 5672 5668 5665 5662 5659 5656 5653 5651 5648 5647 5644 5643 5642 5644 5644 5643 5643 5643 5643 5642 5642 5642 5643 5643 5644 5644 5645 5646 5646 5647 5647 5648 5648 5649 5650 5651 5652 5653 5654 5655 5657 5658 5660
5662 5661 5658 5654 5652 5648 5645 5643 5640 5637 5634 5632 5632 5629 5632 5632 5631 5631 5631 5631 5631 5630 5631 5631 5631 5632 5632 5633 5634 5634 5635 5635 5636 5636 5637 5638 5639 5640 5642 5642 5644 5645 5646 5648
5652 5650 5647 5644 5641 5637 5634 5632 5629 5626 5622 5620 5621 5617 5619 5619 5619 5620 5620 5620 5619 5619 5619 5619 5619 5620 5620 5621 5621 5622 5622 5623 5624 5624 5625 5626 5627 5628 5629 5630 5631 5633 5634 5636
5642 5638 5635 5632 5629 5626 5623 5620 5617 5614 5611 5609 5611 5608 5606 5607 5608 5609 5609 5608 5608 5608 5608 5608 5608 5608 5608 5609 5609 5610 5610 5611 5611 5611 5612 5613 5615 5615 5616 5617 5619 5620 5622 5623
5631 5628 5624 5621 5618 5615 5612 5609 5606 5602 5600 5599 5600 5596 5596 5596 5596 5597 5597 5596 5596 5596 5596 5596 5596 5596 5596 5597 5597 5597 5598 5598 5598 5599 5600 5601 5602 5603 5604 5605 5606 5608 5609 5611
5620 5617 5614 5610 5607 5604 5602 5599 5597 5593 5591 5589 5589 5586 5587 5586 5585 5584 5584 5584 5584 5584 5584 5584 5584 5584 5584 5585 5585 5585 5586 5586 5586 5587 5587 5588 5589 5590 5591 5592 5593 5595 5596 5598
5609 5606 5603 5600 5597 5595 5592 5589 5587 5584 5581 5579 5578 5577 5576 5575 5574 5573 5573 5573 5573 5573 5572 5572 5572 5572 5572 5572 5573 5573 5573 5573 5574 5574 5575 5575 5576 5577 5578 5579 5580 5582 5583 5585
5599 5596 5594 5591 5588 5586 5584 5581 5578 5575 5571 5569 5569 5568 5566 5565 5564 5563 5562 5561 5561 5561 5560 5560 5560 5560 5560 5560 5560 5560 5560 5561 5561 5562 5562 5562 5563 5564 5565 5566 5567 5569 5570 5572
5590 5587 5585 5582 5579 5577 5575 5572 5569 5566 5564 5561 5559 5561 5557 5556 5554 5553 5551 5550 5550 5549 5548 5548 5548 5548 5548 5548 5548 5548 5548 5548 5549 5549 5549 5550 5550 5551 5552 5553 5554 5556 5557 5559
5582 5578 5575 5573 5571 5568 5565 5563 5561 5559 5556 5553 5550 5553 5549 5546 5544 5543 5541 5540 5539 5538 5537 5537 5537 5536 5536 5536 5536 5536 5535 5536 5536 5536 5537 5537 5537 5538 5539 5540 5541 5543 5544 5546
5573 5570 5567 5564 5564 5560 5557 5554 5552 5549 5547 5544 5542 5544 5539 5537 5535 5533 5531 5529 5528 5527 5526 5525 5525 5525 5525 5524 5524 5524 5523 5523 5524 5524 5524 5524 5524 5525 5526 5527 5528 5529 5531 5533
5564 5562 5560 5557 5553 5550 5548 5546 5543 5540 5537 5535 5534 5532 5530 5527 5525 5524 5521 5519 5517 5516 5515 5515 5514 5514 5513 5513 5512 5512 5512 5511 5511 5511 5511 5512 5512 5512 5513 5514 5515 5516 5518 5519
5556 5554 5551 5548 5545 5542 5539 5537 5534 5532 5529 5526 5525 5522 5520 5518 5516 5514 5511 5509 5507 5506 5504 5504 5503 5503 5502 5501 5501 5500 5500 5500 5499 5499 5499 5499 5499 5499 5499 5501 5502 5503 5504 5506
5548 5545 5542 5541 5538 5534 5531 5529 5526 5523 5520 5517 5515 5513 5511 5509 5506 5504 5501 5499 5497 5495 5494 5493 5492 5491 5491 5490 5490 5489 5488 5488 5487 5487 5487 5486 5486 5486 5486 5487 5488 5489 5491 5492
5540 5537 5533 5531 5529 5525 5523 5521 5518 5515 5511 5509 5506 5505 5502 5500 5497 5494 5492 5489 5487 5485 5484 5483 5481 5480 5480 5479 5478 5478 5477 5476 5476 5475 5474 5474 5473 5473 5473 5474 5474 5476 5477 5479
5533 5529 5525 5522 5520 5517 5517 5513 5510 5506 5503 5500 5497 5495 5493 5490 5487 5484 5482 5479 5477 5475 5474 5472 5471 5470 5469 5468 5467 5466 5465 5464 5463 5463 5462 5461 5461 5460 5460 5460 5461 5462 5464 5466
5526 5522 5518 5515 5511 5509 5508 5504 5501 5497 5495 5493 5489 5487 5484 5481 5479 5476 5473 5470 5468 5465 5464 5462 5461 5460 5459 5457 5456 5454 5453 5452 5451 5450 5449 5448 5447 5447 5447 5448 5448 5450 5451 5453
5519 5516 5512 5508 5504 5501 5501 5497 5492 5490 5487 5485 5481 5478 5475 5472 5470 5469 5464 5461 5458 5456 5454 5452 5451 5450 5448 5446 5444 5443 5442 5440 5439 5437 5436 5435 5434 5434 5435 5435 5436 5437 5439 5441
5513 5509 5505 5501 5497 5495 5493 5489 5486 5484 5481 5477 5473 5470 5467 5464 5462 5459 5456 5453 5450 5448 5446 5444 5442 5440 5438 5436 5434 5432 5431 5429 5427 5425 5424 5423 5422 5422 5423 5423 5424 5425 5427 5429
5506 5502 5499 5495 5491 5490 5485 5482 5479 5476 5472 5469 5466 5463 5460 5457 5454 5451 5447 5445 5442 5440 5438 5435 5433 5430 5428 5426 5424 5422 5420 5418 5416 5415 5413 5412 5411 5411 5411 5412 5413 5414 5416 5418
5500 5496 5492 5489 5487 5482 5478 5475 5472 5468 5465 5462 5458 5456 5452 5449 5446 5443 5440 5437 5435 5432 5429 5427 5424 5422 5419 5416 5414 5412 5410 5408 5406 5405 5403 5402 5401 5401 5401 5402 5402 5404 5405 5407
5493 5489 5486 5482 5479 5476 5472 5469 5465 5462 5458 5455 5452 5448 5445 5442 5439 5436 5433 5430 5427 5424 5422 5419 5416 5413 5411 5408 5405 5403 5401 5399 5397 5396 5394 5393 5393 5392 5392 5392 5393 5394 5396 5397
5487 5483 5479 5476 5474 5470 5467 5463 5459 5455 5451 5448 5445 5441 5438 5435 5432 5429 5426 5423 5420 5417 5414 5411 5408 5405 5402 5399 5397 5395 5393 5391 5389 5387 5386 5385 5384 5384 5383 5384 5384 5386 5387 5388
5481 5477 5474 5471 5467 5464 5461 5457 5453 5449 5445 5442 5438 5435 5432 5428 5425 5422 5419 5416 5413 5409 5406 5403 5400 5397 5394 5392 5390 5387 5385 5383 5381 5379 5378 5377 5376 5376 5376 5376 5376 5376 5378 5380